TimePDT,TemperatureF,Dew PointF,Humidity,Sea Level PressureIn,VisibilityMPH,Wind Direction,Wind SpeedMPH,Gust SpeedMPH,PrecipitationIn,Events,Conditions,WindDirDegrees,DateUTC
12:53 AM,57.9,27.0,31,30.05,10.0,NE,15.0,-,N/A,,Clear,40,2014-03-12 07:53:00
1:53 AM,59.0,23.0,25,30.05,10.0,NE,21.9,-,N/A,,Clear,40,2014-03-12 08:53:00
2:53 AM,57.9,25.0,28,30.03,10.0,NNE,26.5,32.2,N/A,,Clear,30,2014-03-12 09:53:00
3:53 AM,57.0,24.1,28,30.01,10.0,NE,26.5,35.7,N/A,,Clear,40,2014-03-12 10:53:00
4:53 AM,57.0,24.1,28,30.02,10.0,NE,26.5,34.5,N/A,,Clear,40,2014-03-12 11:53:00
5:53 AM,55.9,26.1,32,30.04,10.0,NE,26.5,36.8,N/A,,Clear,40,2014-03-12 12:53:00
6:53 AM,55.9,26.1,32,30.05,10.0,NE,20.7,27.6,N/A,,Clear,40,2014-03-12 13:53:00
7:53 AM,55.9,26.1,32,30.06,10.0,NNE,20.7,31.1,N/A,,Clear,20,2014-03-12 14:53:00
8:53 AM,57.9,27.0,31,30.09,10.0,NNE,24.2,32.2,N/A,,Clear,30,2014-03-12 15:53:00
9:53 AM,62.1,26.1,25,30.11,10.0,NE,24.2,35.7,N/A,,Clear,40,2014-03-12 16:53:00
10:53 AM,66.0,27.0,23,30.09,10.0,NE,24.2,35.7,N/A,,Clear,40,2014-03-12 17:53:00
11:53 AM,70.0,30.0,23,30.09,10.0,ENE,13.8,-,N/A,,Clear,60,2014-03-12 18:53:00
12:53 PM,73.0,28.0,19,30.08,10.0,NE,17.3,26.5,N/A,,Clear,40,2014-03-12 19:53:00
1:53 PM,75.0,30.9,20,30.06,10.0,ENE,18.4,25.3,N/A,,Clear,60,2014-03-12 20:53:00
2:53 PM,75.9,27.0,16,30.05,10.0,NE,16.1,27.6,N/A,,Partly Cloudy,40,2014-03-12 21:53:00
3:53 PM,77.0,28.9,17,30.04,10.0,NE,12.7,20.7,N/A,,Partly Cloudy,50,2014-03-12 22:53:00
4:53 PM,77.0,28.0,17,30.02,10.0,NE,12.7,16.1,N/A,,Partly Cloudy,40,2014-03-12 23:53:00
5:53 PM,75.0,27.0,17,30.01,10.0,NNE,13.8,-,N/A,,Partly Cloudy,20,2014-03-13 00:53:00
6:53 PM,72.0,28.0,20,30.01,10.0,NE,10.4,-,N/A,,Clear,40,2014-03-13 01:53:00
7:53 PM,68.0,28.9,23,30.01,10.0,NNW,4.6,-,N/A,,Clear,330,2014-03-13 02:53:00
8:53 PM,66.9,27.0,22,30.03,10.0,NW,5.8,-,N/A,,Clear,320,2014-03-13 03:53:00
9:53 PM,63.0,34.0,34,30.04,10.0,NNW,6.9,-,N/A,,Clear,330,2014-03-13 04:53:00
10:53 PM,63.0,28.9,28,30.04,10.0,NW,9.2,-,N/A,,Clear,310,2014-03-13 05:53:00
11:53 PM,61.0,33.1,35,30.04,10.0,Calm,Calm,-,N/A,,Clear,0,2014-03-13 06:53:00